Regional Weather Roundup
Issued by NWS

Home | Current Version | Previous Version | Graphics & Text | Print | Product List | Glossary On
Versions: 1 2 3 4 5 6 7 8 9 10 11 12 13 14 15 16 17 18 19 20 21 22 23 24 25 26 27 28 29 30 31 32 33 34 35 36 37 38 39 40 41 42 43 44 45 46 47 48 49 50
000
ASUS43 KBIS 171520
RWRND

NORTH DAKOTA REGIONAL WEATHER ROUNDUP
NATIONAL WEATHER SERVICE BISMARCK ND
900 AM CST WED DEC 17 2014

NOTE: "FAIR" INDICATES FEW OR NO CLOUDS BELOW 12,000 FEET WITH NO
SIGNIFICANT WEATHER AND/OR OBSTRUCTIONS TO VISIBILITY.


NDZ001>003-009>011-017-171600-
NORTHWEST NORTH DAKOTA

CITY           SKY/WX    TMP DP  RH WIND       PRES   REMARKS
WILLISTON      CLOUDY    18  12  77 S12G21    30.17S WCI   5
MINOT          CLOUDY    11   7  84 SE9       30.25F FOG     WCI  -2
MINOT AFB      CLOUDY    10  10 100 SE12      30.25F WCI  -4
$$

NDZ018>021-031>035-040>046-171600-
SOUTHWEST NORTH DAKOTA

CITY           SKY/WX    TMP DP  RH WIND       PRES   REMARKS
BISMARCK       LGT SNOW  14  10  84 S6        30.29R FOG     WCI   5
DICKINSON      LGT SNOW  16  11  80 S10       30.13S WCI   4
GARRISON         N/A     14  10  84 SE10      30.23S WCI   1
HETTINGER ARPT CLOUDY    15  13  91 SE14      30.14S FOG     WCI   0
$$

NDZ004>008-012>016-024-026-027-054-171600-
NORTHEAST NORTH DAKOTA

CITY           SKY/WX    TMP DP  RH WIND       PRES   REMARKS
GRAND FORKS    MOCLDY     1  -2  87 CALM      30.38R
GRND FRKS AFB  MOCLDY     2   1  96 NW5       30.37S WCI  -8
DEVILS LAKE    PTCLDY     1  -8  66 CALM      30.30S
$$

NDZ022-023-025-028>030-036>039-047>053-171600-
SOUTHEAST NORTH DAKOTA

CITY           SKY/WX    TMP DP  RH WIND       PRES   REMARKS
FARGO          PTCLDY     4  -1  80 W7        30.37S WCI  -8
JAMESTOWN      PTCLDY     0  -5  79 NE5       30.31F WCI -10
$$




USA.gov is the U.S. government's official web portal to all federal, state and local government web resources and services.